Portada
METAR-TAF:

METAR-TAF

Aeroports :

Bundaberg, Austràlia

latitud: 24-54-14S, longitud: 152-19-07E, altitud: 33 m

Observació

L'informe es va fer fa 1 hora i 5 minuts, a les 23:00 UTC
Vent 9 kt del Nord/Nord-Oest
Temperatura 24°C
Humitat 69%
Pressió 1015 hPa
Visibilitat 10 km o més
Cel ennuvolat a una alçada de 2000 ft
Cel cobert a una alçada de 2500 ft

METAR: YBUD 242300Z AUTO 33009KT 9999 // BKN020 OVC025 24/18 Q1015

Hora: 10:05 (00:05 UTC)


TAF: manca

Observacions i pronòstics meteorològics de més de 4000 aeroports (METAR i TAF).

Les estacions disponibles són els punts grocs i vermells al mapa.

Posi el ratolí al punt desitjat per veure el nom de l'estació.

Feu clic per veure les observacions i els pronòstics meteorològics.

Per canviar el mapa: feu clic els botons verds amb una creu de color negre per apropar; al botó verd amb un guió per allunyar la imatge; o en les fletxes verdes per a mapes adjacents.


METAR-TAF: